Temp
62 62 62 62 62 62 62 62 62 62 62 62 62 62 61 61 60 55 61 76 74 72 76 73 71 73 71 67 68 63 58 53 56 59 60 65 64 68 73 67 69 69 68 69 71
62 62 62 62 62 62 61 62 62 62 62 62 62 62 61 61 54 59 74 74 74 74 76 73 69 73 67 64 65 62 56 61 65 64 62 66 67 69 67 65 64 66 70 72 71
61 62 62 62 62 61 61 61 62 62 62 62 61 61 61 58 60 69 76 74 74 76 77 74 73 71 64 63 62 59 60 65 66 68 68 65 66 71 65 60 65 63 66 69 69
61 61 61 61 61 61 61 61 61 62 62 61 61 61 61 58 59 73 77 75 75 78 77 72 69 64 62 61 64 61 67 66 67 69 67 63 67 65 67 64 70 70 69 69 66
60 61 61 61 61 61 60 61 61 61 61 61 61 61 58 65 70 71 76 75 76 76 75 70 65 63 61 64 66 61 64 66 68 67 65 68 64 64 65 69 70 70 68 66 65
60 60 60 60 60 60 60 60 60 60 60 61 61 62 62 62 76 74 74 76 78 75 73 71 70 70 65 65 61 67 67 66 66 64 65 64 64 67 66 69 67 67 65 65 65
59 59 59 60 60 60 60 60 60 60 61 62 62 64 63 72 77 74 75 75 78 80 75 74 73 69 68 65 65 70 60 64 63 63 62 65 58 60 67 67 65 65 65 65 65
59 59 59 59 60 60 60 60 60 60 62 62 64 61 65 75 74 74 71 73 78 79 78 79 76 70 67 69 68 62 59 52 61 64 65 61 50 62 67 65 62 64 65 64 65
59 59 59 59 59 60 60 59 60 63 63 64 60 60 66 76 76 79 77 77 78 80 80 87 73 69 68 62 55 56 51 53 58 65 63 59 52 61 66 64 61 62 62 64 64
59 58 58 58 59 59 58 59 61 62 64 67 70 61 71 71 78 81 78 81 78 78 75 70 65 64 59 58 53 53 53 51 56 58 58 54 54 58 63 63 61 61 62 63 63
59 58 58 58 58 58 55 62 60 61 62 62 63 65 71 78 80 77 80 79 77 73 64 64 61 59 61 62 63 61 57 56 55 60 55 53 54 56 60 60 59 61 61 64 64
58 58 58 58 58 57 56 60 60 60 52 65 64 66 72 76 71 77 83 74 70 63 66 62 58 68 68 65 64 61 55 52 56 60 55 53 51 54 57 59 61 62 64 62 62
58 58 58 57 57 56 52 61 62 58 50 60 65 65 69 74 70 72 80 73 67 62 62 59 68 71 70 64 63 60 57 53 54 57 58 54 48 51 57 61 62 64 65 64 63
57 57 57 56 58 50 58 62 58 59 47 58 63 69 70 73 70 79 80 77 67 65 64 64 72 70 65 65 66 55 65 62 56 53 45 54 40 47 52 56 59 60 62 60 57
57 57 57 56 50 51 61 57 59 61 40 65 64 72 68 71 71 72 80 76 67 66 66 64 65 65 63 66 68 60 65 60 58 50 50 50 46 45 52 51 54 57 59 55 56
57 57 56 53 48 53 56 55 60 49 42 62 67 63 62 67 69 72 74 76 74 67 65 67 70 70 69 71 69 68 61 58 53 49 42 47 47 46 48 52 55 58 55 55 54
57 57 55 56 54 53 56 57 48 43 63 61 61 61 60 62 65 67 67 62 62 58 56 65 66 68 72 66 65 62 53 41 41 42 41 49 47 47 55 58 58 55 53 54 54
53 53 52 55 51 55 56 53 40 56 58 67 64 61 60 63 63 64 62 59 65 62 58 56 58 65 72 68 62 59 55 47 42 37 40 50 44 48 56 55 57 56 54 53 51
53 50 48 52 54 54 53 42 47 54 64 62 62 55 55 62 62 61 61 61 65 67 59 56 60 69 70 69 67 60 54 55 45 44 41 42 48 54 54 53 53 52 53 52 51
49 46 47 55 56 55 49 44 51 61 65 63 53 58 51 57 59 57 60 67 67 70 68 62 56 65 69 69 68 63 62 53 47 39 36 42 45 44 47 49 51 50 50 53 52
46 46 56 56 56 52 43 44 54 64 64 61 58 56 57 57 60 58 62 67 70 69 70 65 58 59 64 59 57 60 55 50 48 45 39 37 42 52 54 52 49 49 50 51 51
45 43 58 58 49 42 44 51 56 63 66 64 62 60 59 60 59 60 62 65 71 70 66 65 56 51 54 63 64 58 54 52 47 43 42 42 42 52 55 53 52 49 50 51 52
42 43 57 58 43 43 48 55 60 60 61 63 62 64 64 58 55 62 64 71 72 70 66 64 54 49 54 59 62 58 55 51 48 46 42 41 42 53 53 51 51 50 50 50 48
44 41 48 51 48 47 46 50 54 63 62 64 63 62 61 57 59 58 63 70 71 68 64 64 54 53 50 54 57 55 57 55 51 45 43 44 43 46 48 48 49 49 49 48 48
43 41 45 44 48 46 47 50 52 53 61 62 59 60 57 53 57 57 63 67 71 66 65 64 54 54 55 60 60 58 57 56 52 49 47 49 46 47 48 48 49 49 49 48 47
42 41 46 45 47 47 47 46 51 56 57 59 56 61 58 53 58 58 64 63 65 67 60 60 53 53 56 60 60 55 56 55 53 51 49 48 46 50 50 49 48 49 49 48 48
46 46 46 45 45 46 47 50 53 56 61 65 62 58 58 61 64 65 66 63 63 64 58 56 54 52 48 57 58 51 53 54 53 53 50 47 50 50 47 50 48 47 49 48 49
MSLP
1018.07 1017.69 1017.36 1016.82 1016.37 1015.88 1015.35 1014.46 1014.11 1014.00 1013.16 1012.75 1012.54 1011.97 1011.91 1011.56 1010.88 1011.19 1009.79 1007.37 1007.27 1007.47 1007.85 1008.67 1008.91 1008.80 1008.89 1009.39 1009.64 1010.07 1011.45 1012.31 1011.93 1011.98 1012.38 1012.57 1013.12 1013.97 1014.18 1014.27 1014.80 1014.93 1015.33 1015.64 1015.93
1018.02 1017.75 1017.44 1017.07 1016.40 1015.79 1015.18 1014.36 1013.88 1013.48 1012.80 1012.58 1012.22 1011.87 1011.52 1011.28 1010.93 1009.87 1007.11 1006.94 1007.09 1007.35 1007.91 1008.52 1008.73 1008.71 1009.27 1009.79 1009.84 1010.36 1011.31 1011.42 1011.34 1011.54 1012.05 1012.70 1012.86 1013.85 1014.49 1014.76 1015.60 1015.70 1015.96 1016.16 1016.48
1018.20 1017.60 1016.96 1016.71 1016.24 1015.57 1014.93 1014.36 1013.54 1013.14 1012.67 1012.29 1011.83 1011.47 1011.13 1011.05 1010.36 1007.67 1006.42 1006.99 1007.11 1007.10 1007.51 1008.00 1008.28 1008.46 1009.04 1009.53 1009.75 1010.32 1010.86 1011.09 1011.41 1011.67 1012.35 1013.17 1013.57 1013.92 1014.25 1015.31 1015.32 1016.03 1016.46 1016.80 1017.10
1018.18 1017.67 1017.10 1016.31 1015.74 1015.21 1014.61 1014.10 1013.25 1012.76 1012.46 1011.95 1011.41 1011.02 1011.00 1010.64 1009.23 1006.86 1006.57 1006.91 1007.15 1007.19 1007.66 1007.99 1008.21 1008.50 1009.13 1009.48 1009.57 1010.29 1011.14 1011.21 1011.74 1012.34 1013.08 1013.72 1014.41 1014.71 1014.74 1015.52 1015.86 1016.10 1016.79 1017.21 1017.67
1017.77 1017.26 1016.76 1016.14 1015.54 1014.87 1014.14 1013.41 1012.78 1012.24 1012.10 1011.55 1011.11 1010.95 1010.98 1009.67 1007.98 1006.82 1006.83 1007.07 1007.44 1007.57 1007.71 1008.01 1008.17 1008.51 1008.98 1009.39 1009.74 1010.82 1011.57 1012.09 1012.47 1013.07 1013.91 1014.48 1015.39 1015.18 1016.04 1016.35 1016.46 1016.90 1017.43 1017.90 1018.05
1017.62 1017.11 1016.48 1015.90 1015.36 1014.65 1013.75 1012.85 1012.49 1011.71 1011.43 1011.01 1010.79 1010.78 1010.36 1008.77 1006.92 1006.96 1007.25 1007.26 1007.39 1007.71 1007.86 1007.97 1007.97 1008.22 1008.65 1009.47 1010.00 1011.08 1012.07 1013.04 1013.64 1014.15 1014.82 1015.31 1016.08 1015.69 1016.81 1016.59 1017.01 1017.53 1018.16 1018.43 1018.44
1017.71 1017.18 1016.58 1015.86 1015.18 1014.41 1013.41 1012.58 1012.31 1011.36 1010.78 1010.47 1010.49 1010.47 1009.56 1007.58 1006.92 1007.13 1007.23 1006.88 1007.21 1007.36 1007.76 1007.76 1007.69 1008.16 1008.55 1010.05 1010.70 1011.53 1012.93 1014.07 1014.77 1014.84 1015.73 1015.68 1016.67 1016.70 1016.88 1016.93 1017.11 1018.06 1018.36 1018.61 1018.50
1017.91 1017.45 1016.72 1015.85 1014.96 1014.02 1012.94 1012.06 1011.85 1010.99 1010.48 1010.45 1010.35 1010.23 1008.43 1006.68 1006.89 1007.38 1007.15 1007.00 1007.18 1007.25 1007.21 1007.17 1007.55 1008.11 1008.65 1009.91 1011.30 1012.49 1013.59 1014.87 1015.46 1015.34 1015.57 1016.32 1017.38 1017.36 1017.47 1017.41 1017.79 1018.41 1019.03 1019.12 1018.92
1017.94 1017.53 1016.85 1015.93 1014.96 1013.82 1012.54 1011.62 1011.11 1010.65 1010.51 1010.31 1010.33 1009.83 1007.76 1006.57 1006.83 1006.53 1006.59 1006.59 1006.91 1007.07 1007.05 1007.16 1007.62 1008.47 1009.30 1010.05 1011.86 1012.68 1013.33 1014.22 1015.28 1015.20 1015.51 1016.31 1017.58 1017.74 1017.75 1017.95 1018.45 1018.59 1019.40 1019.32 1019.28
1017.94 1017.34 1016.60 1015.72 1014.68 1013.52 1011.97 1010.72 1010.58 1010.60 1010.47 1010.31 1009.93 1009.68 1007.35 1006.75 1006.22 1006.19 1006.32 1006.24 1006.49 1006.76 1007.20 1007.41 1008.09 1008.82 1009.61 1010.07 1011.18 1011.99 1012.60 1013.56 1014.64 1015.45 1016.13 1016.79 1017.69 1018.13 1018.17 1018.37 1018.84 1019.06 1019.15 1019.29 1019.68
1017.90 1017.32 1016.56 1015.67 1014.57 1013.34 1012.27 1010.95 1011.51 1010.95 1010.76 1010.61 1010.00 1009.32 1007.88 1006.74 1006.06 1005.71 1005.80 1006.16 1006.23 1006.76 1007.34 1007.59 1008.51 1009.00 1009.32 1009.70 1010.15 1010.91 1011.96 1013.29 1014.91 1015.45 1016.40 1017.54 1018.31 1018.65 1018.57 1018.72 1018.98 1019.00 1019.05 1019.32 1019.49
1017.92 1017.31 1016.57 1015.69 1014.56 1013.51 1012.90 1013.55 1014.24 1014.58 1012.51 1010.02 1009.21 1008.74 1007.65 1007.21 1006.92 1005.67 1005.49 1006.04 1006.21 1006.79 1007.23 1007.88 1008.05 1008.12 1008.67 1009.37 1010.01 1010.88 1012.02 1013.32 1014.96 1015.58 1016.41 1018.08 1019.04 1019.13 1018.96 1018.87 1018.71 1018.45 1018.79 1019.15 1019.59
1018.00 1017.40 1016.62 1015.64 1014.49 1014.11 1014.67 1014.12 1014.13 1014.08 1013.33 1009.58 1008.52 1007.81 1006.83 1006.87 1006.38 1005.54 1005.39 1005.70 1006.08 1006.62 1007.09 1007.48 1007.39 1007.27 1007.82 1008.86 1009.64 1010.54 1011.43 1012.76 1014.01 1015.86 1016.81 1017.55 1019.19 1019.50 1019.40 1019.08 1018.78 1018.84 1018.81 1019.51 1019.95
1017.78 1017.35 1016.74 1015.60 1014.76 1015.48 1014.56 1013.78 1013.67 1013.51 1012.67 1009.21 1007.57 1006.22 1006.22 1005.98 1005.66 1004.93 1004.93 1005.42 1005.91 1006.29 1006.81 1006.78 1006.66 1006.70 1007.23 1008.14 1008.71 1009.69 1009.72 1011.88 1013.77 1015.01 1016.78 1017.38 1019.21 1019.47 1019.57 1019.36 1019.17 1019.09 1019.54 1020.12 1020.87
1017.57 1017.33 1016.89 1016.39 1016.38 1015.75 1014.24 1013.58 1013.27 1013.00 1011.25 1007.74 1006.35 1005.36 1005.65 1005.61 1005.19 1004.90 1004.66 1005.00 1005.71 1006.13 1006.63 1006.35 1006.30 1006.34 1006.70 1007.04 1007.67 1009.60 1009.99 1012.01 1014.02 1015.14 1016.19 1017.25 1018.04 1018.90 1019.21 1019.33 1019.37 1019.66 1020.20 1021.04 1021.70
1017.25 1017.05 1016.77 1016.63 1016.57 1014.80 1014.05 1013.66 1013.37 1012.86 1009.97 1007.13 1005.86 1005.54 1005.66 1005.32 1005.07 1004.90 1004.88 1004.87 1005.35 1005.95 1006.13 1006.11 1005.87 1006.03 1005.63 1006.41 1007.24 1009.29 1011.07 1013.02 1014.50 1015.81 1017.26 1017.23 1017.71 1018.29 1018.64 1018.63 1019.40 1020.10 1021.01 1021.67 1022.39
1016.85 1016.55 1016.57 1016.18 1015.15 1014.25 1013.85 1013.72 1013.44 1011.51 1008.80 1007.39 1006.28 1005.83 1005.74 1005.66 1005.39 1005.14 1005.38 1005.53 1005.91 1006.21 1006.41 1005.76 1005.43 1004.84 1004.89 1006.34 1008.12 1008.81 1011.09 1014.22 1015.88 1016.70 1017.35 1017.34 1017.71 1017.78 1018.16 1018.42 1018.86 1020.06 1021.35 1022.20 1022.92
1016.47 1015.95 1015.17 1014.65 1014.15 1014.06 1014.10 1013.83 1012.79 1010.49 1008.65 1007.15 1006.41 1006.02 1005.95 1005.74 1005.55 1005.52 1005.66 1006.09 1006.06 1005.94 1006.25 1006.01 1005.19 1004.36 1004.32 1005.09 1006.77 1008.86 1009.73 1011.73 1014.21 1016.68 1017.33 1017.49 1017.91 1018.03 1018.38 1018.77 1019.04 1020.45 1021.57 1022.61 1023.39
1016.17 1015.56 1015.23 1013.58 1013.82 1014.11 1014.23 1014.04 1012.04 1010.30 1008.80 1007.76 1006.61 1006.19 1006.06 1005.70 1005.68 1005.65 1005.70 1005.77 1005.56 1005.62 1005.79 1006.12 1005.13 1004.37 1004.27 1004.73 1005.92 1007.73 1009.28 1010.90 1013.70 1016.20 1017.14 1017.82 1018.03 1018.37 1018.93 1019.76 1020.43 1021.35 1022.18 1023.11 1023.78
1016.81 1016.34 1014.92 1013.31 1013.54 1013.81 1014.26 1013.73 1011.88 1010.11 1008.93 1007.94 1007.18 1006.42 1006.32 1005.85 1005.85 1005.69 1005.44 1004.72 1004.89 1004.84 1004.82 1005.71 1005.67 1005.13 1004.84 1005.03 1006.04 1006.76 1008.97 1010.97 1013.11 1015.81 1017.30 1017.95 1017.90 1017.71 1019.14 1020.13 1021.01 1021.83 1022.70 1023.39 1024.08
1017.02 1016.33 1013.57 1013.30 1013.71 1013.98 1014.53 1013.49 1011.63 1009.83 1009.06 1008.31 1007.33 1006.72 1006.26 1005.89 1005.52 1005.21 1004.94 1004.11 1004.02 1004.49 1004.75 1005.71 1006.45 1006.14 1005.71 1006.45 1006.88 1007.84 1009.19 1011.31 1013.33 1015.13 1016.58 1017.76 1017.49 1017.27 1017.81 1019.29 1020.70 1021.94 1022.86 1023.43 1024.20
1017.16 1016.55 1013.91 1013.53 1014.17 1014.56 1014.14 1012.72 1011.38 1009.80 1008.63 1008.16 1007.39 1006.74 1006.37 1005.67 1005.31 1004.86 1004.35 1003.83 1003.58 1004.01 1005.13 1005.84 1006.92 1007.50 1007.36 1007.19 1007.23 1007.90 1009.44 1010.81 1013.03 1015.37 1016.40 1017.12 1017.26 1017.17 1017.49 1019.22 1020.66 1021.95 1022.98 1023.72 1024.36
1017.40 1016.46 1014.04 1013.92 1014.36 1014.45 1013.55 1012.43 1011.27 1010.06 1008.98 1007.98 1007.03 1006.42 1005.98 1005.60 1005.42 1004.53 1003.69 1003.42 1003.47 1003.98 1004.68 1005.68 1007.43 1008.24 1008.36 1008.19 1007.63 1008.56 1009.78 1010.93 1012.26 1014.14 1016.05 1017.35 1017.67 1018.04 1018.48 1019.75 1021.15 1022.06 1023.13 1023.93 1024.64
1017.72 1017.06 1015.26 1014.54 1014.27 1013.85 1013.34 1012.39 1011.27 1009.77 1009.03 1008.30 1007.14 1006.41 1006.09 1005.53 1005.21 1004.56 1003.91 1003.53 1003.47 1004.21 1004.90 1005.46 1007.62 1008.26 1008.50 1008.31 1008.39 1009.45 1010.15 1011.00 1012.09 1014.13 1016.06 1016.76 1017.67 1018.71 1019.26 1020.05 1021.32 1022.27 1023.09 1024.03 1024.74
1017.75 1017.42 1016.58 1015.28 1014.59 1013.98 1013.34 1012.59 1011.73 1010.92 1009.26 1008.18 1007.06 1006.87 1006.42 1005.89 1005.37 1004.81 1004.24 1003.76 1003.95 1004.74 1005.40 1005.93 1008.02 1008.66 1008.83 1008.51 1008.71 1009.48 1010.37 1011.25 1012.32 1013.67 1015.10 1015.79 1017.09 1017.86 1018.88 1019.99 1021.03 1022.10 1023.09 1023.91 1024.77
1017.78 1017.75 1016.72 1015.83 1014.85 1014.12 1013.46 1012.75 1011.92 1010.99 1010.09 1008.34 1007.42 1006.99 1006.28 1006.14 1006.11 1005.58 1004.58 1004.18 1004.26 1005.19 1006.12 1006.99 1008.81 1009.16 1009.89 1009.60 1009.51 1010.38 1010.98 1011.71 1012.61 1014.07 1015.08 1015.90 1016.96 1017.51 1019.01 1020.24 1021.32 1022.23 1022.98 1023.78 1024.46
1017.62 1017.42 1017.15 1015.92 1015.12 1014.36 1013.44 1012.70 1012.01 1011.40 1009.25 1008.29 1007.63 1007.15 1006.07 1005.68 1005.54 1005.20 1004.95 1004.83 1004.80 1005.44 1006.69 1007.73 1009.06 1010.12 1011.32 1010.94 1010.72 1011.39 1011.49 1011.94 1012.77 1013.72 1014.82 1015.94 1016.28 1017.60 1019.20 1020.10 1020.90 1021.96 1022.77 1023.47 1024.15
Wind_Speed
17 17 17 19 19 19 20 22 20 19 18 19 18 15 13 10 7 2 4 10 5 13 6 5 1 3 3 3 3 3 6 1 4 5 5 4 7 1 3 7 4 4 4 4 6
17 17 16 16 18 19 19 22 22 20 19 19 18 14 11 7 1 4 9 5 11 13 6 6 4 5 4 3 2 5 5 8 3 5 5 5 6 7 6 10 10 11 10 8 4
16 19 20 18 19 19 20 21 23 20 19 19 18 14 9 2 1 2 4 10 10 9 5 3 3 3 4 2 2 2 4 5 3 8 8 4 4 4 16 5 8 11 8 9 9
15 17 19 22 22 22 22 22 23 21 21 19 16 12 8 2 4 1 6 12 11 6 5 4 3 3 5 4 2 6 6 4 3 8 7 4 3 6 6 9 11 9 9 12 11
17 19 20 22 23 24 25 25 25 23 20 17 14 9 5 3 6 2 11 11 7 4 6 4 3 3 4 4 4 5 3 8 12 12 7 12 7 7 11 11 14 12 11 9 7
17 19 21 23 24 25 26 27 24 25 20 14 9 6 3 2 3 8 9 7 6 5 4 4 5 5 3 5 4 7 13 9 10 7 7 12 1 4 4 12 14 13 9 7 5
17 19 22 24 25 26 27 27 23 25 17 8 5 3 2 7 2 8 8 6 8 5 5 4 3 2 3 8 1 19 13 11 4 5 5 7 7 7 6 10 14 10 9 7 5
16 18 21 24 25 27 29 28 22 19 3 5 5 2 5 2 6 6 3 3 4 4 2 4 4 2 3 9 5 7 5 7 7 9 5 2 2 3 6 9 10 9 6 5 3
16 18 20 22 25 28 31 27 20 4 4 7 1 0 7 2 3 5 5 4 6 4 5 3 3 3 5 8 5 3 6 4 7 9 2 3 5 3 6 7 6 8 3 3 3
15 18 20 22 25 28 31 25 2 2 4 3 3 2 3 2 5 5 5 3 4 2 3 3 5 4 4 4 6 5 5 3 7 3 5 9 8 4 4 8 6 5 5 4 4
15 17 20 22 25 28 15 5 9 7 9 6 3 4 5 7 4 2 4 5 3 6 2 1 5 5 6 6 7 5 4 4 5 0 8 8 11 4 4 8 7 7 7 4 4
15 17 20 21 25 22 5 7 5 5 12 7 9 7 6 3 5 3 7 4 4 3 1 5 3 6 6 6 6 3 5 4 5 5 9 7 6 3 3 5 6 9 5 6 1
12 15 19 24 25 5 3 6 2 2 2 9 6 5 5 9 7 6 8 4 4 4 3 4 4 5 6 4 6 6 7 7 8 8 10 12 4 0 3 1 2 4 6 3 4
12 14 16 28 5 5 4 6 4 5 5 8 4 5 5 5 4 7 6 6 2 6 5 3 3 3 1 4 8 4 9 14 17 5 6 1 2 2 3 4 2 4 6 6 7
12 11 13 7 4 4 5 8 7 3 5 2 1 2 1 8 3 2 4 4 6 3 4 4 2 3 2 5 8 1 17 15 6 6 5 2 5 3 5 5 4 5 7 7 6
13 11 12 1 2 7 8 7 3 6 5 5 3 2 3 2 1 2 3 3 4 2 0 7 3 4 9 3 8 15 18 10 7 4 4 3 4 3 5 6 5 6 9 10 9
14 14 8 2 5 1 6 4 5 4 4 5 2 1 4 3 2 2 5 4 5 4 3 4 4 4 5 10 2 9 7 4 3 1 5 2 3 5 2 4 10 13 12 10 9
15 18 5 6 4 2 3 5 2 3 5 3 3 1 6 6 5 4 6 5 4 4 3 2 2 3 4 8 10 9 8 8 7 6 4 2 4 3 3 6 9 14 13 11 9
14 4 4 5 6 3 6 3 7 5 4 7 7 2 3 3 3 3 8 9 9 9 7 4 4 3 2 3 4 5 4 5 10 3 5 2 2 4 7 8 11 13 13 12 9
4 5 5 2 6 4 6 5 5 3 6 4 2 2 3 3 5 6 7 6 6 10 5 1 1 2 2 4 8 5 6 3 4 5 2 3 4 4 7 9 10 12 11 11 10
3 5 4 4 2 6 4 7 6 6 2 4 3 3 3 3 6 5 7 3 6 5 8 5 3 3 4 4 3 2 3 8 7 4 6 4 7 2 13 14 14 11 9 10 10
2 3 2 2 4 1 4 6 4 4 3 7 4 4 4 2 3 5 7 4 1 9 9 5 6 4 1 5 1 3 3 5 6 4 2 4 6 6 9 13 14 12 8 7 10
1 4 4 3 3 2 4 4 3 3 4 5 4 3 2 3 2 4 4 2 2 5 9 8 1 4 7 7 3 6 3 5 6 4 5 6 5 5 10 12 9 13 10 8 8
2 3 5 3 1 4 1 3 4 4 6 6 5 2 3 2 4 2 3 3 4 4 4 8 4 7 9 8 4 4 3 2 5 5 5 6 5 5 7 12 10 10 9 9 8
2 4 2 2 3 2 2 2 4 6 4 4 1 2 2 2 4 2 2 2 6 2 4 4 5 3 4 1 4 3 3 3 3 5 3 4 9 10 11 13 11 10 9 10 8
2 0 3 3 4 2 4 2 4 4 4 5 3 7 2 1 4 5 1 0 3 4 3 3 2 2 8 8 6 6 6 9 5 5 6 6 1 6 7 8 8 10 10 9 8
1 1 2 3 3 2 4 4 3 6 8 11 5 3 3 2 5 10 6 2 1 5 3 5 6 4 1 3 5 5 3 0 3 3 8 5 7 11 7 12 13 11 10 10 10
Wind_Direction
344 340 337 333 332 330 328 326 329 323 328 321 317 325 319 316 337 163 239 218 171 128 113 110 206 119 73 58 57 106 60 87 175 141 146 152 124 273 50 94 54 11 54 107 129
338 335 334 332 330 329 328 324 321 323 325 316 313 315 318 323 102 229 246 190 143 151 104 147 149 135 67 80 328 93 111 204 162 139 139 83 78 118 108 83 76 68 72 100 106
336 333 333 337 333 332 327 321 316 321 318 309 309 312 314 291 274 249 180 167 154 162 129 128 122 91 94 132 212 112 161 159 34 92 71 71 65 116 128 69 112 117 101 104 103
335 334 334 334 336 331 324 316 316 320 313 303 307 308 297 206 127 264 192 167 156 137 104 103 56 96 99 137 213 86 27 73 81 67 69 12 28 58 58 104 111 100 108 102 95
337 337 336 334 333 328 321 319 316 315 307 302 298 296 258 15 257 67 125 131 122 116 143 134 118 124 127 132 88 82 85 46 71 74 70 64 40 93 79 92 102 93 87 87 93
339 338 335 332 329 325 320 317 317 310 306 293 281 283 254 35 105 139 137 134 134 126 157 146 182 198 128 99 133 111 90 86 65 64 72 110 357 80 84 114 95 94 93 98 114
338 335 331 327 325 322 318 313 318 306 306 274 240 237 78 222 98 160 167 170 158 158 152 209 186 130 116 89 27 110 84 74 60 108 119 155 16 95 124 119 106 110 114 109 130
335 331 327 323 323 321 316 315 316 311 303 176 180 258 246 149 125 150 203 149 156 205 217 179 155 150 92 121 45 82 63 130 208 162 208 159 163 124 122 120 115 115 118 146 139
330 326 322 322 323 320 315 314 311 325 141 140 122 307 274 120 183 187 160 174 154 206 238 139 131 106 75 108 71 334 162 174 155 214 187 119 134 181 135 123 118 115 130 180 125
328 325 323 323 322 321 319 312 291 326 197 215 261 357 314 312 288 146 197 183 150 203 101 105 57 84 41 90 193 181 118 148 155 174 66 86 109 91 97 127 129 126 168 209 218
329 327 324 324 323 322 337 4 11 356 28 246 247 274 265 292 273 205 154 133 133 61 97 20 91 191 205 160 145 132 126 156 95 35 76 110 110 73 101 114 129 170 210 214 219
327 326 325 325 321 319 328 71 100 256 305 230 236 255 278 61 293 293 133 142 140 152 86 30 222 202 118 136 134 144 126 142 111 97 98 116 69 58 118 149 179 203 202 211 193
326 324 327 325 319 25 334 120 276 207 271 297 214 208 208 149 209 246 144 155 140 129 155 150 211 97 146 153 139 200 185 183 132 110 62 117 74 38 333 123 240 248 182 163 184
325 326 331 324 63 327 299 307 304 207 39 277 274 270 153 174 240 205 175 147 22 187 181 210 260 183 143 208 160 220 183 137 138 118 155 175 166 202 211 208 163 107 110 110 91
319 322 328 335 287 326 290 321 318 64 5 274 246 143 149 157 178 248 196 66 165 190 111 249 209 183 269 222 165 358 107 116 120 83 113 357 93 202 168 218 198 148 111 86 87
311 316 336 79 276 244 305 311 66 47 262 327 139 137 111 343 12 106 131 83 171 198 259 229 220 244 205 128 138 128 88 51 52 76 45 250 139 236 188 194 174 151 113 113 109
308 307 307 163 245 318 313 34 43 150 319 308 352 160 161 174 253 124 146 165 162 117 270 332 236 242 148 96 38 102 88 61 13 15 210 274 77 236 273 201 181 147 135 127 121
313 309 248 213 239 351 22 48 148 259 274 325 311 153 173 160 239 183 139 184 254 113 133 155 329 179 188 152 174 192 161 152 182 175 205 21 196 262 51 48 103 131 130 121 117
314 319 282 262 178 148 73 62 210 215 315 330 322 117 204 229 184 178 180 188 201 179 160 161 287 323 19 103 124 179 66 149 107 58 103 202 272 89 100 88 110 123 125 133 128
340 340 271 317 163 81 77 235 258 239 340 336 315 27 208 247 160 165 193 195 207 187 152 210 72 344 154 66 44 120 145 89 28 133 171 244 246 223 166 164 142 136 142 141 125
39 349 267 134 87 55 171 230 277 263 248 239 277 318 223 256 197 195 208 245 199 172 151 145 124 287 37 18 174 52 56 58 106 101 150 163 254 11 185 171 155 152 155 140 142
59 324 326 61 67 38 173 202 288 296 314 269 232 205 245 297 265 224 203 224 82 143 160 181 129 78 123 298 171 87 123 123 117 216 88 139 267 326 148 142 147 145 136 126 137
47 266 314 99 147 245 270 268 261 275 266 291 272 191 333 262 263 214 198 137 160 140 159 173 29 81 358 349 4 67 56 100 98 94 183 138 260 50 103 121 136 136 139 134 132
74 332 315 53 262 149 196 275 272 286 257 265 273 320 284 296 216 278 222 49 84 76 92 101 105 145 177 201 143 128 143 142 107 108 165 224 169 189 150 143 140 138 136 141 145
77 251 217 258 278 203 155 303 318 328 302 270 263 15 301 313 320 210 267 93 65 174 43 89 103 88 9 124 98 106 133 144 96 140 138 222 184 192 174 161 153 143 138 139 147
148 92 344 281 308 252 166 240 221 245 229 287 52 306 328 223 4 300 331 47 178 57 76 17 107 117 34 21 62 83 79 90 62 107 78 92 288 148 122 111 133 154 150 155 167
193 282 120 283 308 154 216 193 261 335 257 235 294 302 352 252 257 236 245 19 108 140 116 79 127 76 76 25 33 21 238 73 151 157 147 170 212 148 151 166 165 157 162 170 174